Regional Weather Roundup
Issued by NWS Sioux Falls, SD

Home | Current Version | Previous Version | Text Only | Print | Product List | Glossary Off
Versions: 1 2 3 4 5 6 7 8 9 10 11 12 13 14 15 16 17 18 19 20 21 22 23 24 25 26 27 28 29 30 31 32 33 34 35 36 37 38 39 40 41 42 43 44 45 46 47 48 49 50

000
ASUS43 KFSD 201810
RWRFSD

WEATHER ROUNDUP FOR SE SOUTH DAKOTA/SW MINNESOTA/NW IOWA
NATIONAL WEATHER SERVICE SIOUX FALLS SD
100 PM CDT SUN AUG 20 2017

NOTE: "FAIR" INDICATES FEW OR NO CLOUDS BELOW 12,000 FEET WITH NO
SIGNIFICANT WEATHER AND OR OBSTRUCTIONS TO VISIBILITY.


SDZ038>040-050-052>070-201900-
SOUTHEAST SOUTH DAKOTA

CITY           SKY/WX    TMP DP  RH WIND       PRES   REMARKS
BROOKINGS      SUNNY     72  61  68 N10       30.02R
CHAMBERLAIN    SUNNY     81  56  42 E13       29.98F
6HR MIN TEMP:  65; 6HR MAX TEMP:  81;

HURON          SUNNY     77  59  53 E13       29.96F
6HR MIN TEMP:  64; 6HR MAX TEMP:  77;

MADISON        FAIR      73  64  73 NE9       30.01S
MITCHELL       SUNNY     79  64  60 NE13      29.98F
6HR MIN TEMP:  63; 6HR MAX TEMP:  79;

SIOUX FALLS    PTSUNNY   82  70  66 E8        29.96F
6HR MIN TEMP:  65; 6HR MAX TEMP:  82;

WINNER         FAIR      81  60  48 E13       30.00F
YANKTON        SUNNY     81  67  62 VRB3      29.96F
$$

MNZ071-072-080-081-089-090-097-098-201900-
SOUTHWEST MINNESOTA

CITY           SKY/WX    TMP DP  RH WIND       PRES   REMARKS
FAIRMONT       SUNNY     79  67  66 MISG      29.97S
JACKSON        SUNNY     77  66  69 CALM      29.99S
LUVERNE        PTSUNNY   79  64  61 E7        29.98S
MARSHALL       CLOUDY    71  63  75 N12       29.99S
6HR MIN TEMP:  61; 6HR MAX TEMP:  71;

MONTEVIDEO     CLOUDY    73  64  73 N7        29.99S
PIPESTONE      CLOUDY    79  64  61 NE7       30.00S
REDWOOD FALLS  CLOUDY    77  65  66 N6        29.96R
TRACY          PTSUNNY   75  68  80 N7        29.99S
WINDOM         SUNNY     81  66  61 NW6       29.98S
WORTHINGTON    CLOUDY    79  68  69 NE5       29.99S HAZE
$$

IAZ001>003-012>014-020>022-031-032-NEZ013-014-SDZ071-201900-
NORTHWEST IOWA

CITY           SKY/WX    TMP DP  RH WIND       PRES   REMARKS
CHEROKEE       SUNNY     82  67  60 S3        29.96F
DENISON        SUNNY     81  68  65 CALM      29.98S
ESTHERVILLE    SUNNY     79  65  62 SW7       29.97F
ORANGE CITY    SUNNY     81  70  69 SW3       29.97S
SHELDON        SUNNY     81  68  65 W6        29.96R
SIOUX CITY     SUNNY     81  67  62 W5        29.95F
6HR MIN TEMP:  64; 6HR MAX TEMP:  81;

SPENCER        SUNNY     81  63  54 CALM      29.97F
6HR MIN TEMP:  64; 6HR MAX TEMP:  82;

STORM LAKE       N/A     79  68  69 SW7       29.98S
$$

ABBREVIATIONS USED IN REMARKS
   TC - TEMPERATURE IN CELSIUS
  WCI - WIND CHILL INDEX
   HX - HEAT INDEX
  VSB - VISIBILITY





USA.gov is the U.S. government's official web portal to all federal, state and local government web resources and services.